[[{"header":{"parameterUnit":"m.s-1","parameterCategory":2,"la1":30.2992,"la2":30.254,"lo1":-89.0895,"lo2":-89.0443,"dy":0.0025,"dx":0.0025,"nx":19,"ny":19,"refTime":"2026-04-24T21:00:00:Z","depth":"0","parameterNumber":2,"parameterNumberName":"U-component_of_CURRENTS"},"data":[0,0,0,-0.0835,-0.0834,-0.0778,-0.0778,-0.0738,-0.0738,0,0,0,0,0,0,0,0,0,0,0,-0.0865,-0.0865,-0.0835,-0.0834,-0.0778,-0.0778,-0.0738,-0.0738,0,0,0,0,0,0,0,0,0,0,0,-0.0865,-0.0865,-0.0865,-0.0834,-0.0778,-0.0778,-0.0738,-0.0772,0,0,0,0,0,0,0,0,0,0,-0.0821,-0.0862,-0.0865,-0.0865,-0.0833,-0.0778,-0.0778,-0.0773,-0.077,-0.0774,0,-0.0775,0,-0.0754,-0.0737,-0.0737,0,0,0,-0.0829,-0.0865,-0.0833,-0.0865,-0.0833,-0.0778,-0.0802,-0.0771,-0.0767,-0.077,-0.0775,-0.0772,-0.0753,-0.0737,-0.0736,-0.075,-0.075,0,0,-0.0833,-0.0869,-0.0836,-0.0831,-0.0832,-0.0804,-0.08,-0.0768,-0.0781,-0.0774,-0.0771,-0.0753,-0.0736,-0.0736,-0.0749,-0.075,0,0,0,-0.0844,-0.0871,-0.0839,-0.0834,-0.082,-0.0802,-0.0798,-0.0783,-0.0768,-0.0771,-0.0752,-0.0736,-0.0736,-0.0749,-0.0749,-0.0802,0,0,0,-0.0846,-0.0877,-0.0841,-0.0864,-0.082,-0.08,-0.0815,-0.077,-0.0765,-0.0752,-0.0736,-0.0736,-0.0749,-0.0749,-0.08,-0.0835,0,0,0,-0.0865,-0.088,-0.0873,-0.0865,-0.084,-0.08,-0.0783,-0.0768,-0.0755,-0.0737,-0.0736,-0.0748,-0.0749,-0.0798,-0.0831,-0.0852,0,0,0,-0.0902,-0.0924,-0.0875,-0.0895,-0.084,-0.0823,-0.0783,-0.0775,-0.0766,-0.0736,-0.0749,-0.0749,-0.0797,-0.0829,-0.085,-0.0887,-0.09,0,0,-0.095,-0.0932,-0.0939,-0.0893,-0.0893,-0.083,-0.0837,-0.0806,-0.0777,-0.076,-0.076,-0.08,-0.0831,-0.0852,-0.093,-0.0942,0,0,0,-0.0966,-0.0973,-0.0966,-0.0951,-0.0916,-0.0891,-0.0846,-0.0828,-0.0809,-0.0773,-0.0801,-0.0819,-0.083,-0.0847,-0.0857,-0.0846,-0.0753,-0.0753,-0.0753,-0.1089,-0.1041,-0.1054,-0.0999,-0.0986,-0.0935,-0.0923,-0.0888,-0.085,-0.0851,-0.0861,-0.0915,-0.0934,-0.0942,-0.093,-0.0854,-0.0854,-0.0854,-0.0854,-0.1154,-0.115,-0.1103,-0.1093,-0.1049,-0.1043,-0.099,-0.0962,-0.0949,-0.0908,-0.0916,-0.0902,-0.0956,-0.0939,-0.0858,-0.0857,-0.0857,-0.0856,-0.0856,-0.1222,-0.1209,-0.1196,-0.1172,-0.1155,-0.11,-0.1093,-0.105,-0.1012,-0.1021,-0.1018,-0.1018,-0.1002,-0.1015,-0.1016,-0.1016,-0.1016,-0.1016,-0.1017,-0.1289,-0.1271,-0.1276,-0.1243,-0.1226,-0.1197,-0.1148,-0.1136,-0.1116,-0.109,-0.109,-0.1028,-0.0964,-0.0957,-0.1021,-0.102,-0.1019,-0.1019,-0.1019,-0.1336,-0.1346,-0.1349,-0.1339,-0.1282,-0.1257,-0.1219,-0.121,-0.1201,-0.1206,-0.1151,-0.1118,-0.1104,-0.1096,-0.1092,-0.1187,-0.1187,-0.1187,-0.1187,-0.1384,-0.1383,-0.1396,-0.1375,-0.1339,-0.1275,-0.1263,-0.1229,-0.1218,-0.1214,-0.1214,-0.1184,-0.1177,-0.1165,-0.1155,-0.115,-0.1258,-0.1258,-0.1258,-0.1411,-0.1415,-0.1428,-0.1404,-0.1349,-0.1296,-0.1261,-0.1208,-0.122,-0.1257,-0.1194,-0.1191,-0.1139,-0.113,-0.11,-0.1088,-0.1076,0,0]},{"header":{"parameterUnit":"m.s-1","parameterCategory":2,"la1":30.2992,"la2":30.254,"lo1":-89.0895,"lo2":-89.0443,"dy":0.0025,"dx":0.0025,"nx":19,"ny":19,"refTime":"2026-04-24T21:00:00:Z","depth":"0","parameterNumber":3,"parameterNumberName":"V-component_of_CURRENTS"},"data":[0,0,0,0.0759,0.0759,0.077,0.0771,0.0768,0.0768,0,0,0,0,0,0,0,0,0,0,0,0.0765,0.0765,0.0759,0.0758,0.077,0.0771,0.0768,0.0768,0,0,0,0,0,0,0,0,0,0,0,0.0765,0.0765,0.0765,0.0758,0.077,0.0771,0.0768,0.0768,0,0,0,0,0,0,0,0,0,0,0.0761,0.0749,0.0765,0.0765,0.0758,0.077,0.0771,0.0769,0.0768,0.0752,0,0.0748,0,0.0743,0.0765,0.0765,0,0,0,0.0778,0.075,0.076,0.0765,0.0758,0.077,0.0771,0.0769,0.0768,0.0751,0.0748,0.0748,0.0743,0.0765,0.0765,0.074,0.074,0,0,0.0777,0.0761,0.076,0.0759,0.0753,0.077,0.0771,0.0769,0.0759,0.0748,0.0748,0.0743,0.0765,0.0765,0.074,0.074,0,0,0,0.0762,0.0761,0.0772,0.076,0.0755,0.077,0.0771,0.076,0.0766,0.0747,0.0743,0.0765,0.0764,0.074,0.074,0.0742,0,0,0,0.0763,0.0751,0.0772,0.0762,0.0755,0.0755,0.0762,0.0767,0.0766,0.0743,0.0765,0.0764,0.074,0.074,0.0742,0.0714,0,0,0,0.0766,0.075,0.0752,0.0761,0.0757,0.0756,0.0762,0.0767,0.0762,0.0765,0.0764,0.074,0.074,0.0742,0.0715,0.0693,0,0,0,0.0751,0.0745,0.0751,0.0743,0.0757,0.0761,0.0762,0.0762,0.0765,0.0765,0.074,0.074,0.0742,0.0715,0.0694,0.062,0.061,0,0,0.0738,0.0742,0.0741,0.0747,0.0749,0.0761,0.076,0.0764,0.0759,0.0742,0.0742,0.0742,0.0715,0.0693,0.0618,0.0608,0,0,0,0.0734,0.073,0.0733,0.0733,0.0742,0.0745,0.0753,0.0762,0.0762,0.0756,0.0741,0.0723,0.071,0.0667,0.0659,0.0585,0.074,0.074,0.074,0.0683,0.0705,0.07,0.0721,0.0723,0.0733,0.0736,0.0743,0.0754,0.076,0.0725,0.0706,0.0662,0.0655,0.0581,0.0741,0.0741,0.0741,0.0741,0.0653,0.0649,0.0672,0.0675,0.069,0.069,0.071,0.0723,0.0714,0.0737,0.0725,0.0671,0.0646,0.0571,0.0741,0.0741,0.0741,0.0741,0.0741,0.0615,0.0617,0.0626,0.0631,0.0632,0.0654,0.0628,0.0654,0.0688,0.0673,0.0619,0.0619,0.0549,0.0673,0.0673,0.0673,0.0673,0.0673,0.0673,0.0567,0.0581,0.0561,0.0579,0.0574,0.0565,0.0575,0.0561,0.0564,0.0588,0.0588,0.0522,0.0685,0.0684,0.0669,0.067,0.067,0.0671,0.0671,0.0513,0.0517,0.0482,0.0471,0.0465,0.0431,0.0458,0.0433,0.043,0.0423,0.0395,0.0543,0.0526,0.0532,0.0526,0.0472,0.0472,0.0472,0.0471,0.0461,0.0467,0.0388,0.0359,0.0347,0.0357,0.028,0.0266,0.0261,0.0233,0.0273,0.0273,0.0284,0.0253,0.0265,0.0255,0.0133,0.0132,0.0132,0.0407,0.0385,0.0308,0.0293,0.0294,0.0265,0.0197,0.011,0.0064,0.0114,0.0184,0.0198,0.0199,0.0222,0.0178,0.0201,0.0187,0,0]}],[{"header":{"parameterUnit":"m.s-1","parameterCategory":2,"la1":30.2992,"la2":30.254,"lo1":-89.0895,"lo2":-89.0443,"dy":0.0025,"dx":0.0025,"nx":19,"ny":19,"refTime":"2026-04-24T21:00:00:Z","depth":"2","parameterNumber":2,"parameterNumberName":"U-component_of_CURRENTS"},"data":[0,0,0,0.028,0.0281,0.0339,0.034,0.031,0.031,0,0,0,0,0,0,0,0,0,0,0,0.0243,0.0243,0.0279,0.0281,0.0339,0.034,0.0311,0.031,0,0,0,0,0,0,0,0,0,0,0,0.0243,0.0243,0.0243,0.0281,0.0339,0.034,0.0311,0.0292,0,0,0,0,0,0,0,0,0,0,0.0248,0.0224,0.0243,0.0243,0.0282,0.0339,0.034,0.0292,0.0293,0.0255,0,0.0255,0,0.0286,0.0306,0.0305,0,0,0,0.028,0.0224,0.0247,0.0243,0.0282,0.0339,0.0313,0.0294,0.0295,0.0255,0.0255,0.0256,0.0286,0.0305,0.0305,0.0167,0.0166,0,0,0.0277,0.0247,0.0247,0.0248,0.0284,0.0311,0.0315,0.0295,0.0283,0.0255,0.0256,0.0285,0.0305,0.0304,0.0168,0.0166,0,0,0,0.0268,0.0244,0.027,0.0247,0.0269,0.0313,0.0317,0.0284,0.0294,0.0256,0.0285,0.0305,0.0304,0.0169,0.0167,0.0097,0,0,0,0.0266,0.024,0.0268,0.025,0.027,0.0291,0.0305,0.0295,0.0295,0.0285,0.0304,0.0303,0.017,0.0168,0.0101,0.0078,0,0,0,0.0243,0.0238,0.0242,0.0248,0.0278,0.0292,0.0303,0.0297,0.0312,0.0305,0.0303,0.0171,0.0168,0.0105,0.0084,0.0055,0,0,0,0.0214,0.0216,0.0241,0.0252,0.0277,0.0295,0.0303,0.0309,0.0302,0.0304,0.017,0.0167,0.0106,0.0088,0.0059,0.0122,0.0111,0,0,0.0206,0.0214,0.0225,0.025,0.0276,0.0288,0.0243,0.0239,0.0243,0.0172,0.017,0.01,0.0085,0.0056,-0.0021,-0.0027,0,0,0,0.0218,0.022,0.0234,0.0253,0.0272,0.0222,0.0228,0.0191,0.0125,0.0229,0.0069,0.0061,0.0046,0.009,0.0084,0.0156,0.0156,0.0156,0.0156,0.0142,0.0186,0.0193,0.0223,0.0206,0.0165,0.0109,0.0045,0.0067,0.0008,-0.002,-0.0121,-0.0078,-0.0081,-0.005,-0.005,-0.0051,-0.0051,-0.0051,0.012,0.0125,0.0141,0.0158,0.0108,0.0039,-0.0055,-0.0075,-0.0159,-0.0129,-0.014,-0.0016,-0.0091,-0.0057,-0.0056,-0.0055,-0.0055,-0.0054,-0.0054,0.0059,0.007,0.0084,0.008,-0.001,-0.0075,-0.0176,-0.022,-0.023,-0.0254,-0.0177,-0.0174,-0.0134,-0.0252,-0.0252,-0.0252,-0.0253,-0.0253,-0.0253,-0.0012,0.0014,-0.0005,-0.0015,-0.007,-0.016,-0.0249,-0.0263,-0.0261,-0.0251,-0.025,-0.0189,-0.0182,-0.0146,-0.0257,-0.0256,-0.0256,-0.0256,-0.0255,-0.0038,-0.0051,-0.0074,-0.0109,-0.0201,-0.0256,-0.0298,-0.0274,-0.0284,-0.0258,-0.0244,-0.0243,-0.0206,-0.0199,-0.0164,-0.0273,-0.0273,-0.0273,-0.0273,-0.0077,-0.0075,-0.0133,-0.0205,-0.0278,-0.0315,-0.0318,-0.0303,-0.0266,-0.0256,-0.0257,-0.0205,-0.0203,-0.0163,-0.0157,-0.012,-0.0218,-0.0218,-0.0218,-0.0078,-0.0103,-0.0155,-0.0225,-0.032,-0.0335,-0.0331,-0.0375,-0.0312,-0.022,-0.0286,-0.0262,-0.0184,-0.0183,-0.0115,-0.0109,-0.0046,0,0]},{"header":{"parameterUnit":"m.s-1","parameterCategory":2,"la1":30.2992,"la2":30.254,"lo1":-89.0895,"lo2":-89.0443,"dy":0.0025,"dx":0.0025,"nx":19,"ny":19,"refTime":"2026-04-24T21:00:00:Z","depth":"2","parameterNumber":3,"parameterNumberName":"V-component_of_CURRENTS"},"data":[0,0,0,0.0072,0.0073,0.007,0.0069,0.0021,0.002,0,0,0,0,0,0,0,0,0,0,0,0.007,0.0071,0.0072,0.0073,0.007,0.0069,0.0021,0.002,0,0,0,0,0,0,0,0,0,0,0,0.007,0.007,0.0071,0.0073,0.007,0.0069,0.0021,0.003,0,0,0,0,0,0,0,0,0,0,0.0037,0.0038,0.007,0.0071,0.0073,0.007,0.0069,0.0031,0.003,0.0015,0,0.0026,0,0.003,0.0018,0.0017,0,0,0,0.0056,0.0039,0.0052,0.0071,0.0073,0.007,0.0066,0.0031,0.0029,0.0013,0.0025,0.0024,0.0029,0.0017,0.0017,-0.0014,-0.0015,0,0,0.0056,0.0051,0.0054,0.0052,0.0086,0.0067,0.0066,0.003,0.0025,0.0025,0.0023,0.0028,0.0017,0.0017,-0.0014,-0.0014,0,0,0,0.0068,0.0051,0.0066,0.0053,0.0061,0.0067,0.0067,0.0026,0.0035,0.0022,0.0028,0.0017,0.0016,-0.0014,-0.0014,-0.0022,0,0,0,0.0067,0.006,0.0066,0.006,0.0063,0.0047,0.0063,0.0038,0.0034,0.0028,0.0017,0.0016,-0.0014,-0.0014,-0.0022,-0.002,0,0,0,0.0068,0.0059,0.0067,0.0061,0.0069,0.0049,0.0054,0.0037,0.0038,0.0017,0.0016,-0.0014,-0.0014,-0.0021,-0.002,-0.0008,0,0,0,0.0051,0.0056,0.0067,0.0066,0.0069,0.0048,0.0055,0.0027,0.0006,0.0017,-0.0014,-0.0014,-0.0021,-0.002,-0.0008,-0.0082,-0.0087,0,0,0.0047,0.0055,0.0054,0.0064,0.0042,0.0046,0.0016,-0.0004,0.0002,-0.0008,-0.0009,-0.0022,-0.002,-0.0008,-0.0087,-0.0093,0,0,0,0.0045,0.0043,0.0039,0.003,0.0021,-0.0,-0.0018,-0.0005,-0.0008,-0.0004,-0.0022,-0.002,-0.0012,-0.0057,-0.0061,-0.0015,-0.0015,-0.0015,-0.0015,0.002,0.0018,-0.0006,-0.0018,-0.0034,-0.0041,-0.004,-0.0028,-0.0031,-0.0022,-0.0026,-0.0022,-0.0071,-0.0075,-0.0029,-0.0029,-0.0029,-0.0029,-0.0029,-0.0008,-0.0021,-0.0044,-0.0068,-0.0083,-0.0107,-0.0075,-0.0056,-0.0027,-0.0026,-0.0018,-0.0063,-0.008,-0.0029,-0.0029,-0.0029,-0.0029,-0.0029,-0.0029,-0.003,-0.0036,-0.0061,-0.0108,-0.0132,-0.0133,-0.0107,-0.0067,-0.0035,-0.0023,-0.0066,-0.0067,-0.0019,-0.0021,-0.0021,-0.0021,-0.0021,-0.0021,-0.0021,-0.0033,-0.0059,-0.0102,-0.0141,-0.0166,-0.0162,-0.0115,-0.0093,-0.0081,-0.0076,-0.0076,-0.0019,-0.0019,-0.0018,-0.002,-0.002,-0.002,-0.002,-0.002,-0.0025,-0.0062,-0.0121,-0.0157,-0.0191,-0.0162,-0.0137,-0.013,-0.0116,-0.0127,-0.0102,-0.0101,-0.0101,-0.0099,-0.0099,-0.0122,-0.0122,-0.0122,-0.0122,-0.0029,-0.0048,-0.0145,-0.0192,-0.0203,-0.016,-0.0131,-0.0122,-0.0128,-0.012,-0.012,-0.014,-0.0138,-0.014,-0.0137,-0.0137,-0.017,-0.017,-0.0169,-0.0029,-0.0074,-0.0141,-0.0208,-0.0211,-0.0144,-0.01,-0.0027,-0.0025,-0.0164,-0.0052,-0.014,-0.0172,-0.0167,-0.0172,-0.0166,-0.0168,0,0]}],[{"header":{"parameterUnit":"m.s-1","parameterCategory":2,"la1":30.2992,"la2":30.254,"lo1":-89.0895,"lo2":-89.0443,"dy":0.0025,"dx":0.0025,"nx":19,"ny":19,"refTime":"2026-04-24T21:00:00:Z","depth":"4","parameterNumber":2,"parameterNumberName":"U-component_of_CURRENTS"},"data":[0,0,0,-0.041,-0.0412,-0.0524,-0.0524,-0.0587,-0.0587,0,0,0,0,0,0,0,0,0,0,0,-0.0359,-0.0359,-0.0409,-0.0412,-0.0523,-0.0524,-0.0587,-0.0587,0,0,0,0,0,0,0,0,0,0,0,-0.0358,-0.0359,-0.0359,-0.0412,-0.0523,-0.0524,-0.0587,-0.0524,0,0,0,0,0,0,0,0,0,0,-0.0426,-0.0367,-0.0359,-0.0359,-0.0413,-0.0523,-0.0524,-0.0522,-0.0528,-0.0512,0,-0.0521,0,-0.0557,-0.0589,-0.059,0,0,0,-0.0417,-0.0362,-0.0414,-0.0359,-0.0414,-0.0523,-0.0475,-0.0526,-0.0532,-0.052,-0.0522,-0.0526,-0.0558,-0.059,-0.059,-0.0527,-0.0526,0,0,-0.0411,-0.0359,-0.041,-0.0418,-0.043,-0.0471,-0.0478,-0.0531,-0.0516,-0.0523,-0.0528,-0.0559,-0.059,-0.059,-0.0528,-0.0527,0,0,0,-0.039,-0.0354,-0.0407,-0.0414,-0.0442,-0.0474,-0.0482,-0.0514,-0.0538,-0.0529,-0.056,-0.059,-0.059,-0.0529,-0.0527,-0.0454,0,0,0,-0.0386,-0.0343,-0.0404,-0.0372,-0.0441,-0.0485,-0.0463,-0.0534,-0.0542,-0.056,-0.059,-0.0591,-0.053,-0.0528,-0.0458,-0.0417,0,0,0,-0.0356,-0.0339,-0.0354,-0.0369,-0.042,-0.0486,-0.0513,-0.0537,-0.056,-0.059,-0.0591,-0.0531,-0.0528,-0.0462,-0.0424,-0.0391,0,0,0,-0.0299,-0.0301,-0.0352,-0.0361,-0.0419,-0.048,-0.0513,-0.0549,-0.0571,-0.059,-0.053,-0.0528,-0.0463,-0.0428,-0.0395,-0.0479,0,0,0,-0.0274,-0.0295,-0.0306,-0.0356,-0.0408,-0.0466,-0.0475,-0.0517,-0.0526,-0.051,-0.051,-0.0457,-0.0424,-0.0392,-0.0351,0,0,0,0,-0.0282,-0.029,-0.0312,-0.0354,-0.0415,-0.0436,-0.0495,-0.0485,-0.0455,-0.053,-0.0433,-0.0414,-0.0397,-0.0456,-0.0517,-0.0517,-0.0518,-0.0518,-0.0518,-0.0114,-0.0209,-0.0243,-0.035,-0.0374,-0.0414,-0.0401,-0.0388,-0.0419,-0.0371,-0.0337,-0.0236,-0.0293,-0.0323,-0.0323,-0.0322,-0.0322,-0.0322,-0.0321,-0.0075,-0.0116,-0.0208,-0.0285,-0.0325,-0.0322,-0.0302,-0.0291,-0.022,-0.0251,-0.0238,-0.0352,-0.0314,-0.0315,-0.0316,-0.0317,-0.0318,-0.0318,-0.0319,0.0035,-0.0023,-0.0082,-0.0196,-0.0205,-0.0237,-0.0172,-0.0134,-0.0135,-0.0097,-0.0173,-0.0183,-0.021,-0.0091,-0.009,-0.009,-0.009,-0.0089,-0.0089,0.0152,0.0067,0.0012,-0.0096,-0.0139,-0.012,-0.0071,-0.0069,-0.0066,-0.0082,-0.0067,-0.0159,-0.0167,-0.0196,-0.0084,-0.0085,-0.0085,-0.0086,-0.0086,0.0171,0.02,0.0099,0.004,-0.0084,-0.0082,-0.0026,-0.005,-0.0036,-0.0082,-0.0091,-0.0092,-0.013,-0.0138,-0.017,-0.0045,-0.0045,-0.0046,0,0.0246,0.0232,0.0135,0.0033,-0.0058,-0.008,-0.0076,-0.0089,-0.011,-0.0089,-0.0082,-0.009,-0.0093,-0.0139,-0.0147,-0.0184,0,0,0,0.0241,0.0226,0.016,0.0051,-0.009,-0.0118,-0.0084,-0.0098,-0.0059,-0.0144,-0.0063,-0.0058,-0.017,-0.0067,-0.0129,-0.0138,-0.0189,0,0]},{"header":{"parameterUnit":"m.s-1","parameterCategory":2,"la1":30.2992,"la2":30.254,"lo1":-89.0895,"lo2":-89.0443,"dy":0.0025,"dx":0.0025,"nx":19,"ny":19,"refTime":"2026-04-24T21:00:00:Z","depth":"4","parameterNumber":3,"parameterNumberName":"V-component_of_CURRENTS"},"data":[0,0,0,-0.0306,-0.0307,-0.0273,-0.0273,-0.0013,-0.0011,0,0,0,0,0,0,0,0,0,0,0,-0.0309,-0.0309,-0.0306,-0.0307,-0.0273,-0.0272,-0.0013,-0.001,0,0,0,0,0,0,0,0,0,0,0,-0.0308,-0.0309,-0.031,-0.0307,-0.0273,-0.0272,-0.0014,-0.0084,0,0,0,0,0,0,0,0,0,0,-0.0139,-0.0176,-0.0309,-0.031,-0.0307,-0.0273,-0.0272,-0.0089,-0.0079,0.0022,0,-0.0001,0,-0.0015,0.0008,0.0009,0,0,0,-0.0267,-0.0185,-0.0195,-0.031,-0.0307,-0.0274,-0.0277,-0.0085,-0.0074,0.0035,0.0003,0.0011,-0.0011,0.001,0.0011,0.0209,0.0209,0,0,-0.0269,-0.0268,-0.0204,-0.019,-0.0328,-0.0279,-0.0277,-0.008,-0.0063,0.0003,0.0016,-0.0007,0.0012,0.0014,0.0209,0.0209,0,0,0,-0.0301,-0.027,-0.0288,-0.0198,-0.0219,-0.0279,-0.0276,-0.0072,-0.0085,0.0018,-0.0003,0.0013,0.0017,0.0209,0.0209,0.0101,0,0,0,-0.03,-0.0292,-0.029,-0.0283,-0.0225,-0.0173,-0.0272,-0.0098,-0.0078,-0.0005,0.0014,0.002,0.0209,0.0209,0.0104,0.009,0,0,0,-0.0305,-0.0291,-0.0303,-0.0285,-0.0292,-0.0178,-0.0178,-0.0095,-0.0091,0.0009,0.002,0.0209,0.0209,0.0106,0.0093,0.0104,0,0,0,-0.0281,-0.0298,-0.0303,-0.0312,-0.0293,-0.0267,-0.018,-0.0112,-0.0032,0.0015,0.0209,0.0209,0.0107,0.0096,0.0106,0.0116,0,0,0,-0.0289,-0.0298,-0.0304,-0.0309,-0.0312,-0.0267,-0.0212,-0.0068,0.0008,0.0167,0.017,0.0103,0.0094,0.0104,0.0127,0,0,0,0,-0.0297,-0.0301,-0.0304,-0.0306,-0.0292,-0.0245,-0.0134,-0.0095,0.0015,0.0045,0.0137,0.0137,0.0145,0.0158,0.021,0.021,0.021,0.021,0.021,-0.0249,-0.027,-0.027,-0.028,-0.0259,-0.0199,-0.016,-0.0071,0.0007,0.0023,0.0071,0.0042,0.0051,0.0083,0.0082,0.0082,0.0082,0.0081,0.0081,-0.0243,-0.025,-0.0247,-0.0266,-0.0236,-0.0184,-0.0128,-0.0102,-0.0033,0.0006,0.0019,0.0071,0.0071,0.0073,0.0075,0.0076,0.0077,0.0077,0.0078,-0.0218,-0.0233,-0.0242,-0.0254,-0.0218,-0.0179,-0.0138,-0.012,-0.0093,-0.0094,-0.0017,0.0005,-0.001,-0.0073,-0.0073,-0.0073,-0.0073,-0.0073,-0.0073,-0.0207,-0.0218,-0.0239,-0.0239,-0.0229,-0.02,-0.0146,-0.0119,-0.01,-0.0095,-0.0091,-0.0008,-0.0003,-0.0014,-0.0074,-0.0074,-0.0074,-0.0074,-0.0074,-0.0228,-0.0223,-0.0258,-0.0264,-0.0244,-0.02,-0.0156,-0.0104,-0.0076,-0.0078,-0.0086,-0.0085,-0.0026,-0.002,-0.003,-0.0097,-0.0097,-0.0097,0,-0.0226,-0.0231,-0.0274,-0.0285,-0.0256,-0.0207,-0.0144,-0.0101,-0.0096,-0.0115,-0.0087,-0.0098,-0.0097,-0.003,-0.0024,-0.0036,0,0,0,-0.0235,-0.0245,-0.0273,-0.029,-0.0262,-0.0185,-0.0122,-0.0107,-0.0116,-0.0076,-0.0098,-0.0098,-0.0049,-0.0076,0.0019,0.0025,0.0013,0,0]}]]